Weather History for Zephyrhills, FL

Change the Weather History Date:

Saturday, January 26, 2013

  Actual Average (KPCM) Record (KPCM)
Temperature  
Mean Temperature 56 °F -  
Max Temperature 73 °F 72 °F 86 °F (1967)
Min Temperature 39 °F 47 °F 25 °F (1940)
Degree Days  
Heating Degree Days 9    
Growing Degree Days 6 (Base 50)    
Moisture  
Dew Point 48 °F    
Average Humidity 78    
Maximum Humidity 100    
Minimum Humidity 38    
Precipitation  
Precipitation 0.00 in - - ()
Sea Level Pressure  
Sea Level Pressure 30.25 in    
Wind  
Wind Speed 2 mph (NW)    
Max Wind Speed 12 mph    
Max Gust Speed -    
Visibility 7 miles    
Events Fog    
Averages and records for this station are not official NWS values.
T = Trace of Precipitation, MM = Missing Value Source: NWS Daily Summary

Daily Weather History Graph

Daily Weather History Graph

Search for Another Location

Airport:

Trip Planner

Search our weather history database for the weather conditions in past years. The results will help you decide how hot, cold, wet, or windy it might be!

Date:

Astronomy

Jan. 26, 2013 Rise Set
Actual Time 7:18 AM EST 6:04 PM EST
Civil Twilight 6:53 AM EST 6:28 PM EST
Nautical Twilight 6:25 AM EST 6:57 PM EST
Astronomical Twilight 5:57 AM EST 7:25 PM EST
Moon 5:53 PM EST (1/26) 6:38 AM EST (1/26)
Length of Visible Light 11h 34m
Length of Day
10h 45m
Full, 100% of the Moon is Illuminated
Jan 26
Full
Jan 26
Full
Feb 3
Last Quarter
Feb 10
New
Feb 17
First Quarter

Hourly Weather History & Observations

Time (EST) Temp. Dew Point Humidity Pressure Visibility Wind Dir Wind Speed Gust Speed Precip Events Conditions
12:15 AM 44.6 °F 42.8 °F 93% 30.26 in 10.0 mi Calm Calm - N/A   Clear
12:35 AM 44.6 °F 42.8 °F 93% 30.26 in 7.0 mi Calm Calm - N/A   Clear
12:55 AM 44.6 °F 42.8 °F 93% 30.26 in 7.0 mi Calm Calm - N/A   Clear
1:15 AM 44.6 °F 44.6 °F 100% 30.27 in 4.0 mi Calm Calm - N/A   Clear
1:35 AM 44.6 °F 42.8 °F 93% 30.26 in 7.0 mi Calm Calm - N/A   Clear
1:55 AM 42.8 °F 42.8 °F 100% 30.26 in 7.0 mi Calm Calm - N/A   Clear
2:15 AM 42.8 °F 42.8 °F 100% 30.26 in 5.0 mi Calm Calm - N/A   Clear
2:35 AM 42.8 °F 41.0 °F 93% 30.25 in 5.0 mi Calm Calm - N/A   Clear
2:55 AM 42.8 °F 42.8 °F 100% 30.24 in 4.0 mi Calm Calm - N/A   Clear
3:15 AM 42.8 °F 42.8 °F 100% 30.24 in 1.2 mi Calm Calm - N/A   Mist
3:35 AM 42.8 °F 42.8 °F 100% 30.24 in 0.2 mi Calm Calm - N/A Fog Fog
3:55 AM 42.8 °F 42.8 °F 100% 30.23 in 0.2 mi North - - N/A Fog Fog
4:15 AM 42.8 °F 41.0 °F 93% 30.24 in 0.5 mi Calm Calm - N/A Fog Fog
4:35 AM 41.0 °F 41.0 °F 100% 30.24 in 0.2 mi Calm Calm - N/A Fog Fog
4:55 AM 41.0 °F 41.0 °F 100% 30.23 in 0.2 mi Calm Calm - N/A Fog Fog
5:15 AM 41.0 °F 41.0 °F 100% 30.24 in 0.2 mi Calm Calm - N/A Fog Fog
5:35 AM 41.0 °F 41.0 °F 100% 30.24 in 0.2 mi Calm Calm - N/A Fog Fog
5:55 AM 41.0 °F 41.0 °F 100% 30.24 in 0.2 mi Calm Calm - N/A Fog Fog
6:15 AM 41.0 °F 39.2 °F 93% 30.25 in 0.2 mi Calm Calm - N/A Fog Fog
6:35 AM 41.0 °F 41.0 °F 100% 30.25 in 0.2 mi Calm Calm - N/A Fog Fog
6:55 AM 41.0 °F 39.2 °F 93% 30.26 in 2.5 mi Calm Calm - N/A   Clear
7:15 AM 39.2 °F 37.4 °F 93% 30.26 in 0.5 mi Calm Calm - N/A Fog Fog
7:35 AM 39.2 °F 39.2 °F 100% 30.27 in 0.2 mi Calm Calm - N/A Fog Fog
8:15 AM 42.8 °F 41.0 °F 93% 30.29 in 0.2 mi Calm Calm - N/A Fog Fog
8:35 AM 44.6 °F 42.8 °F 93% 30.29 in 0.2 mi Calm Calm - N/A Fog Fog
8:55 AM 46.4 °F 46.4 °F 100% 30.29 in 0.5 mi Calm Calm - N/A Fog Fog
9:15 AM 51.8 °F 51.8 °F 100% 30.30 in 5.0 mi Calm Calm - N/A   Clear
9:35 AM 53.6 °F 53.6 °F 100% 30.31 in 10.0 mi Calm Calm - N/A   Clear
9:55 AM 57.2 °F 55.4 °F 94% 30.31 in 10.0 mi Calm Calm - N/A   Clear
10:15 AM 62.6 °F 55.4 °F 77% 30.31 in 10.0 mi Calm Calm - N/A   Clear
10:35 AM 66.2 °F 55.4 °F 68% 30.31 in 10.0 mi NNW 3.5 mph - N/A   Clear
10:55 AM 68.0 °F 55.4 °F 64% 30.31 in 10.0 mi NNW 4.6 mph - N/A   Clear
11:15 AM 69.8 °F 53.6 °F 56% 30.30 in 10.0 mi NW 6.9 mph - N/A   Clear
11:35 AM 69.8 °F 51.8 °F 53% 30.29 in 10.0 mi West 5.8 mph - N/A   Clear
11:55 AM 71.6 °F 50.0 °F 46% 30.28 in 10.0 mi NNW 4.6 mph - N/A   Scattered Clouds
12:15 PM 71.6 °F 48.2 °F 43% 30.28 in 10.0 mi NNW 8.1 mph - N/A   Scattered Clouds
12:35 PM 73.4 °F 48.2 °F 41% 30.27 in 10.0 mi NE 3.5 mph - N/A   Clear
12:55 PM 73.4 °F 48.2 °F 41% 30.26 in 10.0 mi WNW 5.8 mph - N/A   Scattered Clouds
1:15 PM 73.4 °F 48.2 °F 41% 30.25 in 10.0 mi NW 8.1 mph - N/A   Scattered Clouds
1:35 PM 73.4 °F 48.2 °F 41% 30.23 in 10.0 mi North 4.6 mph - N/A   Clear
1:55 PM 73.4 °F 46.4 °F 38% 30.22 in 10.0 mi North 4.6 mph - N/A   Scattered Clouds
2:15 PM 73.4 °F 48.2 °F 41% 30.21 in 10.0 mi North 4.6 mph - N/A   Scattered Clouds
2:35 PM 73.4 °F 48.2 °F 41% 30.20 in 10.0 mi North 5.8 mph - N/A   Clear
2:55 PM 73.4 °F 48.2 °F 41% 30.20 in 10.0 mi Calm Calm - N/A   Clear
3:15 PM 73.4 °F 48.2 °F 41% 30.20 in 10.0 mi West 6.9 mph - N/A   Clear
3:35 PM 73.4 °F 48.2 °F 41% 30.20 in 10.0 mi WNW 11.5 mph - N/A   Clear
3:55 PM 73.4 °F 48.2 °F 41% 30.19 in 10.0 mi NW 3.5 mph - N/A   Clear
4:15 PM 73.4 °F 48.2 °F 41% 30.19 in 10.0 mi North 4.6 mph - N/A   Clear
4:35 PM 73.4 °F 50.0 °F 44% 30.20 in 10.0 mi WNW 5.8 mph - N/A   Clear
4:55 PM 71.6 °F 50.0 °F 46% 30.20 in 10.0 mi NW 5.8 mph - N/A   Clear
5:15 PM 71.6 °F 51.8 °F 50% 30.20 in 10.0 mi NW 8.1 mph - N/A   Clear
5:35 PM 69.8 °F 51.8 °F 53% 30.21 in 10.0 mi WNW 8.1 mph - N/A   Clear
5:55 PM 68.0 °F 51.8 °F 56% 30.22 in 10.0 mi West 9.2 mph - N/A   Clear
6:15 PM 66.2 °F 53.6 °F 64% 30.22 in 10.0 mi WNW 6.9 mph - N/A   Clear
6:35 PM 64.4 °F 53.6 °F 68% 30.23 in 10.0 mi WNW 6.9 mph - N/A   Clear
6:55 PM 62.6 °F 53.6 °F 72% 30.23 in 10.0 mi NW 5.8 mph - N/A   Clear
7:15 PM 62.6 °F 53.6 °F 72% 30.23 in 10.0 mi WNW 6.9 mph - N/A   Clear
7:35 PM 62.6 °F 53.6 °F 72% 30.23 in 10.0 mi NW 4.6 mph - N/A   Clear
7:55 PM 60.8 °F 53.6 °F 77% 30.24 in 10.0 mi NW 3.5 mph - N/A   Clear
8:15 PM 60.8 °F 53.6 °F 77% 30.24 in 10.0 mi WNW 3.5 mph - N/A   Clear
8:35 PM 59.0 °F 53.6 °F 82% 30.24 in 10.0 mi Calm Calm - N/A   Clear
8:55 PM 55.4 °F 53.6 °F 94% 30.24 in 10.0 mi Calm Calm - N/A   Clear
9:15 PM 55.4 °F 53.6 °F 94% 30.25 in 10.0 mi Calm Calm - N/A   Clear
9:35 PM 53.6 °F 53.6 °F 100% 30.25 in 7.0 mi Calm Calm - N/A   Clear
9:55 PM 53.6 °F 53.6 °F 100% 30.25 in 10.0 mi Calm Calm - N/A   Clear
10:15 PM 51.8 °F 51.8 °F 100% 30.26 in 10.0 mi Calm Calm - N/A   Clear
10:35 PM 51.8 °F 51.8 °F 100% 30.26 in 5.0 mi Calm Calm - N/A   Clear
10:55 PM 51.8 °F 51.8 °F 100% 30.27 in 4.0 mi Calm Calm - N/A   Clear
11:15 PM 51.8 °F 51.8 °F 100% 30.27 in 0.5 mi Calm Calm - N/A Fog Fog
11:35 PM 50.0 °F 50.0 °F 100% 30.27 in 0.8 mi Calm Calm - N/A   Mist
11:55 PM 50.0 °F 50.0 °F 100% 30.26 in 0.5 mi Calm Calm - N/A Fog Fog